This demonstration page uses our WeatherBlox Daily Observations layout. Learn more.

Left ArrowRight Arrow

38.20091, -84.87328

Hourly Observations for January 4, 2020

Temp ( °F °C ) Dew Point ( °F °C ) Humidity (%) Winds ( mph kmh ) Pressure ( in mb ) Visibility ( mi km ) Precip ( " mm )
12:50 am 00:50 Cloudy 50 10 48 9 94 94 VRB 3 6 29.81 1009 10 16 0.00 0.00
12:53 am 00:53 Cloudy 50 10 48 8.9 93 93 WNW 5 7 29.79 1009 10 16 0.00 0.00
1:30 am 01:30 Cloudy with Mist and Fog 49 9.4 47 8.3 93 93 W 5 7 29.80 1009 5 8 0.00 0.00
1:37 am 01:37 Cloudy with Light Rain 49 9.4 47 8.3 93 93 WNW 6 9 29.80 1009 6 10 0.00 0.00
1:53 am 01:53 Cloudy 49 9.4 47 8.3 93 93 W 5 7 29.79 1009 8 13 0.00 0.00
2:11 am 02:11 Cloudy with Heavy Rain 49 9.4 47 8.3 93 93 W 3 6 29.81 1010 2 3 0.05 1.27
2:53 am 02:53 Cloudy 49 9.4 46 7.8 90 90 W 7 11 29.81 1009 7 11 0.07 1.78
3:53 am 03:53 Cloudy with Light Rain 47 8.3 44 6.7 90 90 W 7 11 29.81 1010 7 11 0.02 0.51
4:53 am 04:53 Cloudy 45 7.2 42 5.6 90 90 W 9 15 29.81 1010 9 14 0.02 0.51
5:53 am 05:53 Cloudy with Mist and Fog 44 6.7 41 5 89 89 W 7 11 29.83 1010 5 8 0.00 0.00
6:02 am 06:02 Cloudy with Mist and Fog 43 6.1 41 5 93 93 WNW 8 13 29.85 1011 6 10 0.00 0.00
6:53 am 06:53 Cloudy with Mist and Fog 42 5.6 39 3.9 89 89 W 9 15 29.84 1011 4 6 0.00 0.00
7:53 am 07:53 Cloudy 40 4.4 38 3.3 93 93 W 8 13 29.86 1011 10 16 0.00 0.00
8:53 am 08:53 Cloudy with Mist and Fog 39 3.9 37 2.8 93 93 VRB 6 9 29.89 1012 6 10 0.00 0.00
9:30 am 09:30 Cloudy 39 3.9 36 2.2 89 89 W 8 13 29.93 1013 10 16 0.00 0.00
9:53 am 09:53 Cloudy 39 3.9 35 1.7 86 86 undefined N/A 29.91 1013 9 14 0.00 0.00
10:29 am 10:29 Cloudy 38 3.3 34 1.1 86 86 WNW 9 15 29.96 1015 10 16 0.00 0.00
10:53 am 10:53 Cloudy 38 3.3 33 0.6 83 83 WNW 9 15 29.94 1014 10 16 0.00 0.00
11:11 am 11:11 Cloudy 38 3.3 33 0.6 83 83 W 13 20 29.97 1015 10 16 0.00 0.00
11:18 am 11:18 Cloudy 39 3.9 33 0.6 79 79 W 10 17 29.97 1015 10 16 0.00 0.00
11:53 am 11:53 Cloudy 39 3.9 32 0 76 76 W 8 13 29.93 1014 10 16 0.00 0.00
12:53 pm 12:53 Mostly Cloudy 39 3.9 30 -1.1 70 70 WNW 18 30 29.93 1013 10 16 0.00 0.00
1:53 pm 13:53 Cloudy 40 4.4 31 -0.6 70 70 WNW 10 17 29.93 1014 10 16 0.00 0.00
2:53 pm 14:53 Cloudy 42 5.6 29 -1.7 60 60 WNW 12 19 29.94 1014 10 16 0.00 0.00
3:53 pm 15:53 Partly Cloudy 40 4.4 27 -2.8 60 60 VRB 7 11 29.97 1015 10 16 0.00 0.00
4:53 pm 16:53 Cloudy 39 3.9 27 -2.8 62 62 WNW 10 17 30.01 1016 10 16 0.00 0.00
5:53 pm 17:53 Cloudy 38 3.3 30 -1.1 73 73 WNW 16 26 30.05 1018 9 14 0.00 0.00
6:53 pm 18:53 Cloudy 37 2.8 30 -1.1 76 76 WNW 10 17 30.08 1019 10 16 0.00 0.00
7:12 pm 19:12 Cloudy 37 2.8 30 -1.1 76 76 WNW 7 11 30.12 1020 10 16 0.00 0.00
7:37 pm 19:37 Cloudy 37 2.8 28 -2.2 70 70 WNW 10 17 30.13 1020 10 16 0.00 0.00
7:53 pm 19:53 Cloudy 37 2.8 27 -2.8 67 67 WNW 13 20 30.12 1020 10 16 0.00 0.00
8:19 pm 20:19 Cloudy 36 2.2 26 -3.3 67 67 NW 15 24 30.16 1021 10 16 0.00 0.00
8:53 pm 20:53 Cloudy 36 2.2 26 -3.3 67 67 WNW 10 17 30.15 1021 10 16 0.00 0.00
9:03 pm 21:03 Cloudy 36 2.2 25 -3.9 64 64 W 10 17 30.17 1022 10 16 0.00 0.00
9:53 pm 21:53 Cloudy 36 2.2 25 -3.9 64 64 WNW 8 13 30.16 1022 10 16 0.00 0.00
10:53 pm 22:53 Cloudy 36 2.2 26 -3.3 67 67 W 6 9 30.19 1022 10 16 0.00 0.00
11:19 pm 23:19 Cloudy 36 2.2 27 -2.8 70 70 W 7 11 30.21 1023 10 16 0.00 0.00
11:51 pm 23:51 Cloudy 36 2 28 -2 75 75 W 8 13 30.21 1023 10 16 0.00 0.00
11:53 pm 23:53 Cloudy 36 2.2 28 -2.2 73 73 W 9 15 30.19 1023 10 16 0.00 0.00

Powered by AerisWeather